Weaverville, CA

5:50 AM PDT on May 24, 2017 (GMT -0700)
Weaverville

Weather History for KO54 - June, 2013

Change the Weather History Date:

Monday, June 17, 2013

  Actual Average (KRDD) Record (KRDD)
Temperature  
Mean Temperature 62 °F -  
Max Temperature 78 °F 90 °F 104 °F (2012)
Min Temperature 46 °F 61 °F 51 °F (1994)
Degree Days  
Heating Degree Days 3    
Growing Degree Days 12 (Base 50)    
Moisture  
Dew Point 42 °F    
Average Humidity 49    
Maximum Humidity 81    
Minimum Humidity 23    
Precipitation  
Precipitation 0.00 in - - ()
Sea Level Pressure  
Sea Level Pressure 30.05 in    
Wind  
Wind Speed 5 mph (WSW)    
Max Wind Speed 17 mph    
Max Gust Speed 26 mph    
Visibility 10 miles    
Events      
Averages and records for this station are not official NWS values.
T = Trace of Precipitation, MM = Missing Value Source: NWS Daily Summary

Daily Weather History Graph

Daily Weather History Graph

Search for Another Location

Airport or City:

Trip Planner

Search our weather history database for the weather conditions in past years. The results will help you decide how hot, cold, wet, or windy it might be!

Date:

Astronomy

Jun. 17, 2013 Rise Set
Actual Time 5:39 AM PDT 8:45 PM PDT
Civil Twilight 5:06 AM PDT 9:18 PM PDT
Nautical Twilight 4:23 AM PDT 10:01 PM PDT
Astronomical Twilight 3:33 AM PDT 10:52 PM PDT
Moon 2:28 PM PDT (6/17) 1:20 AM PDT (6/17)
Length of Visible Light 16h 12m
Length of Day
15h 05m
First Quarter, 61% of the Moon is Illuminated
Jun 17
First Quarter
Jun 23
Full
Jun 29
Last Quarter
Jul 8
New
Jul 15
First Quarter

Hourly Weather History & Observations

Time (PDT) Temp. Windchill Dew Point Humidity Pressure Visibility Wind Dir Wind Speed Gust Speed Precip Events Conditions
12:15 AM 64.4 °F - 42.8 °F 45% 30.10 in 10.0 mi SSW 10.4 mph 16.1 mph N/A   Clear
12:35 AM 59.0 °F - 42.8 °F 55% 30.10 in 10.0 mi Calm Calm - N/A   Clear
12:55 AM 59.0 °F - 41.0 °F 51% 30.10 in 10.0 mi Calm Calm - N/A   Clear
1:15 AM 62.6 °F - 42.8 °F 48% 30.10 in 10.0 mi SSW 6.9 mph - N/A   Clear
1:35 AM 57.2 °F - 42.8 °F 59% 30.10 in 10.0 mi Calm Calm - N/A   Clear
1:55 AM 55.4 °F - 41.0 °F 58% 30.10 in 10.0 mi Calm Calm - N/A   Clear
2:15 AM 53.6 °F - 41.0 °F 62% 30.10 in 10.0 mi NE 3.5 mph - N/A   Clear
2:35 AM 51.8 °F - 41.0 °F 67% 30.10 in 10.0 mi NNE 3.5 mph - N/A   Clear
2:55 AM 51.8 °F - 41.0 °F 67% 30.10 in 10.0 mi North 5.8 mph - N/A   Clear
3:15 AM 51.8 °F - 41.0 °F 67% 30.10 in 10.0 mi Calm Calm - N/A   Clear
3:35 AM 50.0 °F - 41.0 °F 71% 30.09 in 10.0 mi NE 4.6 mph - N/A   Clear
3:55 AM 50.0 °F - 41.0 °F 71% 30.09 in 10.0 mi NNE 3.5 mph - N/A   Clear
4:15 AM 50.0 °F - 41.0 °F 71% 30.09 in 10.0 mi NNE 4.6 mph - N/A   Clear
4:35 AM 48.2 °F - 41.0 °F 76% 30.09 in 10.0 mi Calm Calm - N/A   Clear
4:55 AM 48.2 °F - 41.0 °F 76% 30.09 in 10.0 mi Calm Calm - N/A   Clear
5:15 AM 48.2 °F - 39.2 °F 71% 30.09 in 10.0 mi NNE 3.5 mph - N/A   Clear
5:35 AM 48.2 °F - 41.0 °F 76% 30.09 in 10.0 mi Calm Calm - N/A   Clear
5:55 AM 46.4 °F 45.2 °F 41.0 °F 81% 30.09 in 10.0 mi NNE 3.5 mph - N/A   Clear
6:15 AM 46.4 °F - 41.0 °F 81% 30.10 in 10.0 mi Calm Calm - N/A   Clear
6:35 AM 46.4 °F - 41.0 °F 81% 30.10 in 10.0 mi Calm Calm - N/A   Clear
6:55 AM 48.2 °F - 41.0 °F 76% 30.10 in 10.0 mi Calm Calm - N/A   Clear
7:15 AM 51.8 °F - 44.6 °F 76% 30.10 in 10.0 mi Calm Calm - N/A   Clear
7:35 AM 55.4 °F - 44.6 °F 67% 30.10 in 10.0 mi Calm Calm - N/A   Clear
7:55 AM 57.2 °F - 44.6 °F 63% 30.10 in 10.0 mi Calm Calm - N/A   Clear
8:15 AM 59.0 °F - 44.6 °F 59% 30.10 in 10.0 mi Calm Calm - N/A   Clear
8:35 AM 59.0 °F - 42.8 °F 55% 30.10 in 10.0 mi Calm Calm - N/A   Clear
8:55 AM 62.6 °F - 42.8 °F 48% 30.10 in 10.0 mi SW 3.5 mph - N/A   Clear
9:15 AM 62.6 °F - 42.8 °F 48% 30.09 in 10.0 mi Calm Calm - N/A   Clear
9:35 AM 66.2 °F - 41.0 °F 40% 30.08 in 10.0 mi South 4.6 mph - N/A   Clear
9:55 AM 66.2 °F - 41.0 °F 40% 30.08 in 10.0 mi SE 3.5 mph - N/A   Clear
10:15 AM 68.0 °F - 41.0 °F 37% 30.07 in 10.0 mi SSW 5.8 mph - N/A   Clear
10:35 AM 69.8 °F - 41.0 °F 35% 30.07 in 10.0 mi West 5.8 mph - N/A   Clear
10:55 AM 71.6 °F - 39.2 °F 31% 30.07 in 10.0 mi West 6.9 mph - N/A   Clear
11:15 AM 71.6 °F - 39.2 °F 31% 30.06 in 10.0 mi West 8.1 mph - N/A   Clear
11:35 AM 73.4 °F - 41.0 °F 31% 30.06 in 10.0 mi WSW 6.9 mph - N/A   Clear
11:55 AM 73.4 °F - 41.0 °F 31% 30.06 in 10.0 mi WNW 6.9 mph - N/A   Clear
12:15 PM 75.2 °F - 39.2 °F 27% 30.06 in 10.0 mi West 6.9 mph - N/A   Clear
12:35 PM 75.2 °F - 39.2 °F 27% 30.05 in 10.0 mi West 11.5 mph 20.7 mph N/A   Clear
12:55 PM 75.2 °F - 39.2 °F 27% 30.04 in 10.0 mi WNW 9.2 mph - N/A   Clear
1:15 PM 77.0 °F - 39.2 °F 26% 30.03 in 10.0 mi West 11.5 mph 16.1 mph N/A   Clear
1:35 PM 77.0 °F - 39.2 °F 26% 30.03 in 10.0 mi WNW 5.8 mph 16.1 mph N/A   Clear
1:55 PM 78.8 °F - 37.4 °F 23% 30.03 in 10.0 mi WSW 5.8 mph 16.1 mph N/A   Clear
2:15 PM 77.0 °F - 39.2 °F 26% 30.02 in 10.0 mi NW 11.5 mph - N/A   Clear
2:35 PM 78.8 °F - 39.2 °F 24% 30.01 in 10.0 mi WSW 11.5 mph 18.4 mph N/A   Clear
2:55 PM 77.0 °F - 39.2 °F 26% 30.01 in 10.0 mi WSW 6.9 mph - N/A   Clear
3:15 PM 77.0 °F - 39.2 °F 26% 30.01 in 10.0 mi NW 12.7 mph 17.3 mph N/A   Partly Cloudy
3:35 PM 77.0 °F - 41.0 °F 28% 30.00 in 10.0 mi North 6.9 mph 19.6 mph N/A   Scattered Clouds
3:55 PM 77.0 °F - 41.0 °F 28% 30.00 in 10.0 mi West 8.1 mph 19.6 mph N/A   Partly Cloudy
4:15 PM 77.0 °F - 41.0 °F 28% 30.00 in 10.0 mi WNW 5.8 mph - N/A   Clear
4:35 PM 77.0 °F - 41.0 °F 28% 30.00 in 10.0 mi West 9.2 mph - N/A   Clear
4:55 PM 77.0 °F - 41.0 °F 28% 29.99 in 10.0 mi WSW 12.7 mph 24.2 mph N/A   Partly Cloudy
5:15 PM 77.0 °F - 41.0 °F 28% 29.99 in 10.0 mi West 8.1 mph 19.6 mph N/A   Partly Cloudy
5:35 PM 75.2 °F - 41.0 °F 29% 29.99 in 10.0 mi West 11.5 mph 19.6 mph N/A   Partly Cloudy
5:55 PM 75.2 °F - 42.8 °F 31% 29.99 in 10.0 mi West 10.4 mph 20.7 mph N/A   Clear
6:15 PM 75.2 °F - 42.8 °F 31% 29.99 in 10.0 mi West 8.1 mph 18.4 mph N/A   Mostly Cloudy
6:35 PM 73.4 °F - 44.6 °F 36% 29.98 in 10.0 mi West 8.1 mph 18.4 mph N/A   Partly Cloudy
6:55 PM 73.4 °F - 46.4 °F 38% 29.98 in 10.0 mi WSW 10.4 mph 21.9 mph N/A   Clear
7:15 PM 71.6 °F - 46.4 °F 41% 29.99 in 10.0 mi WSW 8.1 mph 16.1 mph N/A   Clear
7:35 PM 68.0 °F - 46.4 °F 46% 29.99 in 10.0 mi WSW 8.1 mph - N/A   Clear
7:55 PM 68.0 °F - 46.4 °F 46% 29.99 in 10.0 mi WSW 5.8 mph - N/A   Clear
8:15 PM 66.2 °F - 46.4 °F 49% 30.00 in 10.0 mi SW 8.1 mph 16.1 mph N/A   Clear
8:35 PM 64.4 °F - 46.4 °F 52% 30.00 in 10.0 mi SSW 9.2 mph 16.1 mph N/A   Clear
8:55 PM 62.6 °F - 46.4 °F 55% 30.01 in 10.0 mi SW 12.7 mph 17.3 mph N/A   Clear
9:15 PM 62.6 °F - 46.4 °F 55% 30.02 in 10.0 mi WSW 11.5 mph 18.4 mph N/A   Mostly Cloudy
9:35 PM 60.8 °F - 46.4 °F 59% 30.02 in 10.0 mi SW 13.8 mph 18.4 mph N/A   Mostly Cloudy
9:55 PM 59.0 °F - 46.4 °F 63% 30.02 in 10.0 mi SW 12.7 mph 25.3 mph N/A   Scattered Clouds
10:15 PM 59.0 °F - 44.6 °F 59% 30.03 in 10.0 mi SW 12.7 mph 23.0 mph N/A   Partly Cloudy
10:35 PM 57.2 °F - 44.6 °F 63% 30.03 in 10.0 mi SSW 13.8 mph 23.0 mph N/A   Partly Cloudy
10:55 PM 57.2 °F - 44.6 °F 63% 30.02 in 10.0 mi SW 16.1 mph 24.2 mph N/A   Clear
11:15 PM 57.2 °F - 44.6 °F 63% 30.02 in 10.0 mi SW 13.8 mph 20.7 mph N/A   Clear
11:35 PM 57.2 °F - 42.8 °F 59% 30.02 in 10.0 mi SSW 16.1 mph 26.5 mph N/A   Clear
11:55 PM 57.2 °F - 42.8 °F 59% 30.01 in 10.0 mi SW 17.3 mph 21.9 mph N/A   Partly Cloudy